Powrót do katalogu

STARLINK-32040

AktywnyŁącznośćVLEO
NORAD 60109·PAYLOAD·🇺🇸 United States

Wystrzelony Jun 23, 2024 z Cape Canaveral Space Force Station

Loading…

Następne Przeloty (najbliższe 24 godziny)

TLE

ŚwieżeSource: CelesTrak SupGP

Epoka: Sep 14, 2026, 21:16 UTC

1 60109C 24117U   26257.88659722  .00038606  00000+0  11409-2 0  2576
2 60109  53.1569 235.8302 0001414 100.7105  76.8265 15.34364433    15

Śledź STARLINK-32040 w czasie rzeczywistym z AllMySat

Download on the App Store